TimePDT,TemperatureF,Dew PointF,Humidity,Sea Level PressureIn,VisibilityMPH,Wind Direction,Wind SpeedMPH,Gust SpeedMPH,PrecipitationIn,Events,Conditions,WindDirDegrees,DateUTC
12:56 AM,64.0,48.0,56,30.09,10.0,Variable,6.9,-,N/A,,Clear,0,2012-10-14 07:56:00
1:56 AM,66.0,46.9,50,30.09,10.0,South,5.8,-,N/A,,Clear,180,2012-10-14 08:56:00
2:56 AM,66.0,46.9,50,30.08,10.0,Variable,5.8,-,N/A,,Clear,0,2012-10-14 09:56:00
4:56 AM,57.9,48.0,70,30.08,10.0,Calm,Calm,-,N/A,,Clear,0,2012-10-14 11:56:00
5:56 AM,57.9,48.0,70,30.09,10.0,SE,6.9,-,N/A,,Clear,140,2012-10-14 12:56:00
6:56 AM,55.9,48.0,75,30.09,10.0,ESE,5.8,-,N/A,,Clear,110,2012-10-14 13:56:00
7:56 AM,57.9,48.9,72,30.09,10.0,Calm,Calm,-,N/A,,Clear,0,2012-10-14 14:56:00
8:56 AM,66.0,50.0,56,30.10,10.0,Calm,Calm,-,N/A,,Clear,0,2012-10-14 15:56:00
9:56 AM,73.0,50.0,44,30.09,10.0,Calm,Calm,-,N/A,,Clear,0,2012-10-14 16:56:00
10:56 AM,80.1,50.0,35,30.08,10.0,NW,10.4,-,N/A,,Clear,320,2012-10-14 17:56:00
11:56 AM,82.9,51.1,33,30.06,10.0,NNW,10.4,-,N/A,,Clear,340,2012-10-14 18:56:00
12:56 PM,84.9,52.0,32,30.04,10.0,NW,12.7,-,N/A,,Clear,320,2012-10-14 19:56:00
1:56 PM,87.1,51.1,29,30.01,10.0,NNW,13.8,-,N/A,,Clear,340,2012-10-14 20:56:00
2:56 PM,80.1,54.0,40,30.00,10.0,NW,17.3,-,N/A,,Clear,310,2012-10-14 21:56:00
3:56 PM,77.0,53.1,43,29.99,10.0,NW,19.6,-,N/A,,Clear,310,2012-10-14 22:56:00
4:56 PM,75.9,53.1,45,29.98,10.0,NW,13.8,-,N/A,,Clear,310,2012-10-14 23:56:00
5:56 PM,72.0,52.0,49,29.99,10.0,NNW,12.7,-,N/A,,Clear,330,2012-10-15 00:56:00
6:56 PM,64.9,54.0,68,29.99,10.0,NW,8.1,-,N/A,,Clear,320,2012-10-15 01:56:00
7:56 PM,64.0,55.0,73,30.01,10.0,West,3.5,-,N/A,,Clear,280,2012-10-15 02:56:00
8:56 PM,60.1,55.9,86,30.01,10.0,WNW,4.6,-,N/A,,Clear,300,2012-10-15 03:56:00
10:56 PM,57.0,53.1,87,30.02,10.0,Calm,Calm,-,N/A,,Clear,0,2012-10-15 05:56:00
11:56 PM,57.0,54.0,89,30.01,10.0,Calm,Calm,-,N/A,,Clear,0,2012-10-15 06:56:00